Regional Weather Roundup
Issued by NWS State College, PA

Current Version | Previous Version | Text Only | Print | Product List | Glossary On
Versions: 1 2 3 4 5 6 7 8 9 10 11 12 13 14 15 16 17 18 19 20 21 22 23 24 25 26 27 28 29 30 31 32 33 34 35 36 37 38 39 40 41 42 43 44 45 46 47 48 49 50
000
ASUS41 KCTP 211010
RWRCTP

REGIONAL WEATHER ROUNDUP
NATIONAL WEATHER SERVICE STATE COLLEGE PA
600 AM EDT SAT APR 21 2018

Note: "fair" indicates few or no clouds below 12,000 feet with no
significant weather and/or obstructions to visibility.

* = STATION THAT DOES NOT REPORT PRECIPITATION /E.G. RAIN...SNOW...ETC/
    THUNDER OR FOG.

PAZ002>004-007>009-013>016-020>023-029>032-211100-
WESTERN PENNSYLVANIA

CITY           SKY/WX    TMP DP  RH WIND       PRES   REMARKS
ERIE           FAIR      29  24  82 S5        30.46R
MEADVILLE      FAIR      28  22  78 CALM      30.43R
FRANKLIN*      FAIR      28  21  75 CALM      30.43S
NEW CASTLE     FAIR      23  20  88 CALM      30.45S
BEAVER COUNTY  NOT AVBL
BUTLER*        FAIR      28  24  85 CALM      30.44S
PITTSBURGH INT FAIR      29  23  78 CALM      30.43S
PITTSBURGH     FAIR      34  23  64 CALM      30.42S
INDIANA*       CLEAR     27  25  93 E3        30.46F
LATROBE        FAIR      27  25  93 CALM      30.44F
WASHINGTON CO* FAIR      26  23  88 CALM      30.47R
$$

PAZ004>006-010>012-017>019-024>028-033>037-041-042-045-046-049>053-211100-
CENTRAL PENNSYLVANIA

CITY           SKY/WX    TMP DP  RH WIND       PRES   REMARKS
BRADFORD       FAIR      24  20  84 CALM      30.39S
DUBOIS         FAIR      28  22  78 CALM      30.40S
CLEARFIELD     FAIR      27  23  85 W3        30.43S
JOHNSTOWN      FAIR      31  20  63 E3        30.37F
ALTOONA        FAIR      32  22  66 CALM      30.42F
STATE COLLEGE  CLEAR     28  23  80 CALM      30.42F
WILLIAMSPORT   FAIR      30  24  78 CALM      30.45S
SELINSGROVE    FAIR      27  24  89 CALM      30.46R
FT INDIANTOWN  FAIR      31  28  89 CALM      30.44S
CAPITAL CITY   FAIR      35  26  69 W6        30.45S
HARRISBURG     FAIR      34  26  72 CALM      30.45R
YORK           FAIR      26  24  92 CALM      30.44F
$$

PAZ038>040-043-044-047-048-054-055-060>062-067>071-211100-
EASTERN PENNSYLVANIA

CITY           SKY/WX    TMP DP  RH WIND       PRES   REMARKS
SCRANTON       FAIR      27  24  89 CALM      30.41R
MOUNT POCONO   FAIR      28  23  81 NW7       30.35R
ALLENTOWN      FAIR      30  22  72 W6        30.43R
QUAKERTOWN*    SUNNY     32  25  74 CALM      30.42R
READING        FAIR      31  27  85 CALM      30.44R
LANCASTER      FAIR      32  25  75 W6        30.44S
COATESVILLE    FAIR      28  23  80 NW7       30.44R
POTTSTOWN      FAIR      28  23  81 NW6       30.45R
BLUE BELL      FAIR      30  28  93 CALM      30.44R
DOYLESTOWN     FAIR      35  25  66 NW6       30.41R
WILLOW GROVE   NOT AVBL
NORTH PHILA    FAIR      38  25  59 NW7       30.44R
PHILADELPHIA   FAIR      37  24  59 W3        30.45R
$$



USA.gov is the U.S. government's official web portal to all federal, state and local government web resources and services.